Terug naar catalogus

STARLINK-33910

ActiefCommunicatieVLEO
NORAD 63916·PAYLOAD·🇺🇸 United States

Gelanceerd May 10, 2025 vanaf Cape Canaveral Space Force Station

Loading…

Volgende Passages (komende 24 uur)

TLE

VersSource: CelesTrak SupGP

Epoch: Sep 14, 2026, 21:19 UTC

1 63916C 25095AC  26257.88868056 -.00042819  00000+0 -15493-2 0  2573
2 63916  43.0027 187.3588 0001299 264.7578 234.6869 15.27634022    14

Volg STARLINK-33910 in realtime met AllMySat

Download on the App Store